SL-8 DEB, 39698

Orbit data source: Space-Track

SL-8 DEB, 39698 is space debris in LEO originally from a launch on Tue, 12 Feb 1991 UTC launched from the Plesetsk Missile And Space Complex (PKMTR). Debris objects in space refer to the collection of defunct objects orbiting the Earth. Examples of debris include non-operational satellites, rocket bodies, and fragments generated from explosions, collisions, or faulty payload assembly.

Loading next visibility...
Identifier
39698, 1991-009DM
Orbit
LEO
Country
Flag of CISCIS
Related business
Manufacturer
Unknown
Mission
Spacecraft
Bus & Motor
Unknown
Mass
Unknown
Launch date (UTC)
1991-02-12 (35 years ago)
Launch vehicle
Unknown
Launch site
Plesetsk Missile And Space Complex (PKMTR)
Object type
Payload
Rocket body
Debris
Shape & HBR
Unknown shape, 0.1 m
Radar Cross Section
Medium (>0.1 m² and <1 m²)

Expand to show TLE details & history
Last TLE update: 4 days ago

TLE from 4 days ago
0 SL-8 DEB
1 39698U 91009DM  26169.81487703  .00000196  00000-0  18936-2 0  9991
2 39698  74.0438 191.4795 0181771 262.6730 273.4451 12.21959841542571
Epoch: 2026-06-18T19:33Z
TLE epoch observation values (Epoch: 2026-06-18T19:33:25.375Z)
Latitude
5.66479°
Longitude
169.45367°
Altitude
1,579.736 km
Speed
7.082 km/s
True Right ascension
00h 39m 26s
True Declination
5° 38' 05"
Sunlit
Object was in daylight at epoch
Visualization orbit readout
Latitude
Unknown
Longitude
Unknown
Altitude
Unknown
Speed
Unknown
Apparent Right ascension
Unknown
Apparent Declination
Unknown
Sunlit
N/A
Visualization observer readout
Local Sidereal Time
02:00:10
Azimuth
Unknown
Elevation
Unknown
Doppler factor
Unknown
Orbital elements
Apogee altitude
1,726.572 km
Perigee altitude
1,437.192 km
Semi-major axis
7,960.019 km
Eccentricity
0.01818
Inclination
74.0438°
RAAN
191.4795°
Arg. of periapsis
262.673°
True anomaly
271.36354°
Mean anomaly
273.4451°
Eccentric anomaly
272.40455°
Mean motion
3.05613 °/min
Orbital period
117.8 mins
BSTAR
0.0018936
Loading maneuver chart data...
Computing Atmospheric mass density...
Loading historical data...
Loading historical data...
Loading historical data...
Loading historical data...
Loading historical data...
Loading historical data...
Loading historical data...

Documentation

Showing up to 5 results
|